Overview Statistics Trail Chart Weather Telemetry Raw packets
 

This is the latest recevied weather packets stored in our database for station/object KB7STN. If no packets are shown the sender has not sent any weather packets the latest 10 day(s).

<< 87 88 89 90 91 92 93 >>
Time Temp. Humidity Pressure Rain* Wind** Luminosity Snow
1788057697 16.67° C 68% 1018.8 hPa 0 mm - - -
1788057397 16.67° C 71% 1018.6 hPa 0 mm - - -
1788057097 16.67° C 73% 1018.7 hPa 0 mm - - -
1788056797 16.11° C 72% 1018.8 hPa 0 mm - - -
1788056497 16.67° C 77% 1018.8 hPa 0 mm - - -
1788056197 16.67° C 78% 1019 hPa 0 mm - - -
1788055897 16.67° C 77% 1019.6 hPa 0.25 mm - - -
1788055597 16.67° C 73% 1019.3 hPa 1.02 mm - - -
1788055297 16.11° C 74% 1018.8 hPa 2.03 mm - - -
1788054997 16.67° C 77% 1018.6 hPa 2.29 mm - - -
1788054697 16.67° C 75% 1018.7 hPa 2.29 mm - - -
1788054397 16.67° C 73% 1019.7 hPa 2.29 mm - - -
1788054097 16.67° C 74% 1020.1 hPa 2.29 mm - - -
1788053797 16.67° C 76% 1020.3 hPa 2.54 mm - - -
1788053497 16.67° C 78% 1020.4 hPa 2.54 mm - - -
1788053197 16.67° C 80% 1020.6 hPa 2.54 mm - - -
1788052897 17.22° C 80% 1021 hPa 2.54 mm - - -
1788052597 17.22° C 77% 1021 hPa 2.54 mm - - -
1788052297 17.78° C 76% 1021.5 hPa 2.29 mm - - -
1788051997 18.89° C 80% 1021.4 hPa 1.52 mm - - -
1788051697 18.89° C 79% 1021.3 hPa 0.51 mm - - -
1788051397 18.89° C 78% 1020.2 hPa 0.25 mm - - -
1788051097 18.89° C 76% 1019.4 hPa 0.25 mm - - -
1788050797 18.89° C 74% 1019.5 hPa 0.25 mm - - -
1788050497 18.89° C 72% 1019.5 hPa 0.25 mm - - -

* Rain latest hour (hover to see other rain measurements)
** Current wind speed in m/s (hover to see current wind gust speed)